Weather History for Eureka, NV

Change the Weather History Date:

Tuesday, December 4, 2012

  Actual Average Record
Temperature  
Mean Temperature 41 °F 27 °F  
Max Temperature 50 °F 41 °F 58 °F (2007)
Min Temperature 32 °F 14 °F -15 °F (2013)
Degree Days  
Heating Degree Days 24 38  
Month to date heating degree days 100 149  
Since 1 July heating degree days 1396 1908  
Cooling Degree Days 0 0  
Month to date cooling degree days 0 0  
Year to date cooling degree days 529 288  
Moisture  
Dew Point 33 °F    
Average Humidity 75    
Maximum Humidity 89    
Minimum Humidity 60    
Precipitation  
Precipitation 0.00 in 0.02 in 0.23 in (2001)
Month to date precipitation 0.13 0.07  
Year to date precipitation 6.05 8.46  
Sea Level Pressure  
Sea Level Pressure 30.20 in    
Wind  
Wind Speed 4 mph (South)    
Max Wind Speed 10 mph    
Max Gust Speed 12 mph    
T = Trace of Precipitation, MM = Missing Value Source: NWS Daily Summary

Daily Weather History Graph

Daily Weather History Graph

Search for Another Location

Airport:

Trip Planner

Search our weather history database for the weather conditions in past years. The results will help you decide how hot, cold, wet, or windy it might be!

Date:

Astronomy

Dec. 04, 2012 Rise Set
Actual Time 6:49 AM PST 4:19 PM PST
Civil Twilight 6:19 AM PST 4:49 PM PST
Nautical Twilight 5:45 AM PST 5:23 PM PST
Astronomical Twilight 5:12 AM PST 5:55 PM PST
Moon 10:10 PM PST (12/4) 10:46 AM PST (12/4)
Length of Visible Light 10h 30m
Length of Day
9h 30m
Waning Gibbous, 68% of the Moon is Illuminated
Dec 4
Waning Gibbous
Dec 6
Last Quarter
Dec 13
New
Dec 19
First Quarter
Dec 28
Full

Hourly Weather History & Observations

Time (PST) Temp. Windchill Dew Point Humidity Pressure Visibility Wind Dir Wind Speed Gust Speed Precip Events Conditions
12:53 AM 32.0 °F 27.5 °F 28.0 °F 85% 30.18 in - WSW 4.6 mph - N/A   Unknown
1:53 AM 34.0 °F 28.0 °F 28.0 °F 79% 30.19 in - South 6.9 mph - N/A   Unknown
2:53 AM 35.1 °F 27.9 °F 28.9 °F 78% 30.18 in - South 9.2 mph - N/A   Unknown
3:53 AM 35.1 °F 29.3 °F 30.0 °F 82% 30.19 in - West 6.9 mph - N/A   Unknown
4:53 AM 35.1 °F - 28.9 °F 78% 30.24 in - Calm Calm - N/A   Unknown
5:53 AM 34.0 °F 31.0 °F 30.0 °F 85% 30.27 in - SW 3.5 mph - N/A   Unknown
6:53 AM 36.0 °F 30.3 °F 30.0 °F 79% 30.29 in - South 6.9 mph - N/A   Unknown
7:53 AM 37.0 °F - 30.0 °F 76% 30.29 in - Calm Calm - N/A   Unknown
8:53 AM 39.0 °F - 32.0 °F 76% 30.30 in - Calm Calm - N/A   Unknown
9:53 AM 41.0 °F - 33.1 °F 73% 30.29 in - Calm Calm - N/A   Unknown
10:53 AM 44.1 °F - 33.1 °F 65% 30.26 in - Calm Calm - N/A   Unknown
11:53 AM 46.0 °F - 34.0 °F 63% 30.22 in - Calm Calm - N/A   Unknown
12:53 PM 46.9 °F - 35.1 °F 63% 30.20 in - SSW 3.5 mph - N/A   Unknown
1:53 PM 48.9 °F - 36.0 °F 61% 30.17 in - South 3.5 mph - N/A   Unknown
3:53 PM 46.0 °F - 37.9 °F 73% 30.15 in - Calm Calm - N/A   Unknown
4:53 PM 44.1 °F 42.5 °F 37.0 °F 76% 30.16 in - East 3.5 mph - N/A   Unknown
5:53 PM 42.1 °F 39.2 °F 36.0 °F 79% 30.18 in - Variable 4.6 mph - N/A   Unknown
6:53 PM 43.0 °F 40.3 °F 35.1 °F 74% 30.18 in - SE 4.6 mph - N/A   Unknown
7:53 PM 44.1 °F 39.5 °F 34.0 °F 68% 30.17 in - SSE 8.1 mph - N/A   Unknown
8:53 PM 41.0 °F 36.4 °F 35.1 °F 79% 30.17 in - ESE 6.9 mph - N/A   Unknown
9:53 PM 42.1 °F 39.2 °F 34.0 °F 73% 30.16 in - SSW 4.6 mph - N/A   Unknown
10:53 PM 42.1 °F 40.2 °F 34.0 °F 73% 30.15 in - SW 3.5 mph - N/A   Unknown
11:53 PM 42.1 °F 38.4 °F 33.1 °F 70% 30.12 in - South 5.8 mph - N/A   Unknown